Guymon, OK

2:08 AM CDT on August 27, 2016 (GMT -0500)
Guymon Municipal

Weather History for KGUY - June, 2014

Change the Weather History Date:

Friday, June 27, 2014

  Actual Average Record
Temperature  
Mean Temperature 84 °F 77 °F  
Max Temperature 95 °F 91 °F 109 °F (2012)
Min Temperature 72 °F 63 °F 51 °F (2003)
Degree Days  
Heating Degree Days 0 0  
Month to date heating degree days 5 6  
Since 1 June heating degree days 5 6  
Since 1 July heating degree days 4537 4455  
Cooling Degree Days 19 12  
Month to date cooling degree days 297 242  
Year to date cooling degree days 475 350  
Since 1 June cooling degree days 297 242  
Growing Degree Days 34 (Base 50)    
Moisture  
Dew Point 62 °F    
Average Humidity 49    
Maximum Humidity 79    
Minimum Humidity 18    
Precipitation  
Precipitation T in 0.06 in 0.62 in (2004)
Month to date precipitation 2.08 2.80  
Year to date precipitation 5.47 9.05  
Snow  
Snow 0.00 in - - ()
Month to date snowfall 0.0  
Since 1 June snowfall 0.0  
Since 1 July snowfall 16.2  
Snow Depth 0.00 in    
Sea Level Pressure  
Sea Level Pressure 29.51 in    
Wind  
Wind Speed 19 mph (South)    
Max Wind Speed 31 mph    
Max Gust Speed 42 mph    
Visibility 10 miles    
Events Rain , Thunderstorm    
T = Trace of Precipitation, MM = Missing Value Source: NWS Daily Summary

Daily Weather History Graph

Daily Weather History Graph

Search for Another Location

Airport or City:

Trip Planner

Search our weather history database for the weather conditions in past years. The results will help you decide how hot, cold, wet, or windy it might be!

Date:

Astronomy

Jun. 27, 2014 Rise Set
Actual Time 6:29 AM CDT 9:08 PM CDT
Civil Twilight 5:58 AM CDT 9:39 PM CDT
Nautical Twilight 5:20 AM CDT 10:17 PM CDT
Astronomical Twilight 4:37 AM CDT 11:00 PM CDT
Moon 6:58 AM CDT 9:18 PM CDT
Length of Visible Light 15h 40m
Length of Day
14h 39m
New Moon, 0% of the Moon is Illuminated
Jun 27
New Moon
Jul 5
First Quarter
Jul 12
Full
Jul 18
Last Quarter
Jul 26
New

Hourly Weather History & Observations

Time (CDT) Temp. Heat Index Dew Point Humidity Pressure Visibility Wind Dir Wind Speed Gust Speed Precip Events Conditions
12:53 AM 77.0 °F - 64.0 °F 64% 29.55 in 10.0 mi South 21.9 mph 33.4 mph N/A   Clear
1:53 AM 75.0 °F - 64.0 °F 69% 29.54 in 10.0 mi South 18.4 mph 28.8 mph N/A   Clear
2:53 AM 75.0 °F - 64.0 °F 69% 29.55 in 10.0 mi South 16.1 mph 26.5 mph N/A   Clear
3:53 AM 73.0 °F - 64.0 °F 73% 29.52 in 10.0 mi South 16.1 mph 26.5 mph N/A   Clear
4:53 AM 73.0 °F - 64.0 °F 73% 29.51 in 10.0 mi South 17.3 mph 27.6 mph N/A   Clear
5:53 AM 72.0 °F - 64.9 °F 78% 29.51 in 10.0 mi South 19.6 mph 27.6 mph N/A   Clear
6:53 AM 72.0 °F - 64.9 °F 78% 29.52 in 10.0 mi South 15.0 mph 25.3 mph N/A   Clear
7:53 AM 73.0 °F - 64.9 °F 76% 29.52 in 10.0 mi South 17.3 mph 28.8 mph N/A   Clear
8:53 AM 79.0 °F - 64.9 °F 62% 29.52 in 10.0 mi SSW 20.7 mph 33.4 mph N/A   Clear
9:53 AM 78.1 °F - 64.9 °F 64% 29.53 in 10.0 mi South 18.4 mph - N/A   Clear
10:53 AM 81.0 °F 82.5 °F 64.0 °F 56% 29.52 in 10.0 mi SSW 21.9 mph 26.5 mph N/A   Clear
11:53 AM 80.1 °F 81.9 °F 64.9 °F 60% 29.55 in 10.0 mi South 17.3 mph - N/A   Clear
1:53 PM 80.1 °F 82.1 °F 66.0 °F 62% 29.54 in 10.0 mi South 16.1 mph - N/A   Partly Cloudy
2:08 PM 79.0 °F - 66.0 °F 64% 29.68 in 10.0 mi South 17.3 mph 23.0 mph N/A Thunderstorm Thunderstorm
2:44 PM 81.0 °F 83.3 °F 66.9 °F 62% 29.67 in 10.0 mi SE 10.4 mph - 0.00 in Rain , Thunderstorm Light Rain
2:53 PM 82.0 °F 84.1 °F 66.0 °F 58% 29.52 in 10.0 mi SSE 11.5 mph - 0.00 in   Partly Cloudy
3:53 PM 91.9 °F 91.5 °F 60.1 °F 34% 29.48 in 10.0 mi SSE 18.4 mph 26.5 mph 0.00 in   Clear
4:53 PM 93.0 °F 90.6 °F 53.1 °F 26% 29.45 in 10.0 mi South 21.9 mph 29.9 mph N/A   Clear
5:53 PM 95.0 °F 92.5 °F 53.1 °F 24% 29.43 in 10.0 mi SSE 17.3 mph 28.8 mph N/A   Clear
6:53 PM 93.0 °F - 50.0 °F 23% 29.41 in 10.0 mi SSE 20.7 mph 31.1 mph N/A   Clear
7:53 PM 91.0 °F - 41.0 °F 17% 29.41 in 10.0 mi South 15.0 mph 23.0 mph N/A   Clear
8:53 PM 84.9 °F 87.6 °F 66.9 °F 55% 29.42 in 10.0 mi SSE 21.9 mph 33.4 mph N/A   Clear
9:53 PM 82.0 °F 84.5 °F 66.9 °F 60% 29.44 in 10.0 mi SSE 26.5 mph 34.5 mph N/A   Clear
10:53 PM 81.0 °F 83.3 °F 66.9 °F 62% 29.47 in 10.0 mi SSE 24.2 mph 34.5 mph N/A   Clear
11:53 PM 78.1 °F - 66.0 °F 66% 29.49 in 10.0 mi South 20.7 mph 36.8 mph N/A   Clear